Time,TemperatureF,DewpointF,PressureIn,WindDirection,WindDirectionDegrees,WindSpeedMPH,WindSpeedGustMPH,Humidity,HourlyPrecipIn,Conditions,Clouds,dailyrainin,SolarRadiationWatts/m^2,SoftwareType,DateUTC
2013-04-16 00:02:00,35.0,33.0,-100.00,NW,308,4.0,10.0,94,0.00,,,0.00,0.000000,,2013-04-16 07:02:00,
2013-04-16 00:11:00,35.0,33.0,-100.00,NW,308,4.0,10.0,94,0.00,,,0.00,0.000000,,2013-04-16 07:11:00,
2013-04-16 00:32:00,34.0,34.0,-100.00,NW,315,4.0,10.0,100,0.00,,,0.00,0.000000,,2013-04-16 07:32:00,
2013-04-16 00:42:00,34.0,34.0,-100.00,NW,315,4.0,10.0,100,0.00,,,0.00,0.000000,,2013-04-16 07:42:00,
2013-04-16 00:53:00,34.0,34.0,-100.00,NW,315,4.0,10.0,100,0.00,,,0.00,0.000000,,2013-04-16 07:53:00,
2013-04-16 01:02:00,34.0,34.0,-100.00,NW,315,4.0,10.0,100,0.00,,,0.00,0.000000,,2013-04-16 08:02:00,
2013-04-16 01:11:00,34.0,34.0,-100.00,NW,315,4.0,10.0,100,0.00,,,0.00,0.000000,,2013-04-16 08:11:00,
2013-04-16 01:42:00,35.0,35.0,-100.00,NW,312,3.0,9.0,99,0.00,,,0.00,0.000000,,2013-04-16 08:42:00,
2013-04-16 01:52:00,35.0,35.0,-100.00,NW,312,3.0,9.0,99,0.00,,,0.00,0.000000,,2013-04-16 08:52:00,
2013-04-16 02:02:00,35.0,35.0,-100.00,NW,312,3.0,9.0,99,0.00,,,0.00,0.000000,,2013-04-16 09:02:00,
2013-04-16 02:11:00,35.0,35.0,-100.00,NW,312,3.0,9.0,99,0.00,,,0.00,0.000000,,2013-04-16 09:11:00,
2013-04-16 02:33:00,35.0,35.0,-100.00,NW,313,4.0,9.0,99,0.00,,,0.00,0.000000,,2013-04-16 09:33:00,
2013-04-16 02:43:00,35.0,35.0,-100.00,NW,313,4.0,9.0,99,0.00,,,0.00,0.000000,,2013-04-16 09:43:00,
2013-04-16 02:53:00,35.0,35.0,-100.00,NW,313,4.0,9.0,99,0.00,,,0.00,0.000000,,2013-04-16 09:53:00,
2013-04-16 03:03:00,35.0,35.0,-100.00,NW,313,4.0,9.0,99,0.00,,,0.00,0.000000,,2013-04-16 10:03:00,
2013-04-16 03:12:00,35.0,35.0,-100.00,NW,313,4.0,9.0,99,0.00,,,0.00,0.000000,,2013-04-16 10:12:00,
2013-04-16 03:33:00,35.0,35.0,-100.00,WNW,301,5.0,9.0,100,0.01,,,0.01,0.000000,,2013-04-16 10:33:00,
2013-04-16 03:43:00,35.0,35.0,-100.00,WNW,301,5.0,9.0,100,0.01,,,0.01,0.000000,,2013-04-16 10:43:00,
2013-04-16 03:53:00,35.0,35.0,-100.00,WNW,301,5.0,9.0,100,0.01,,,0.01,0.000000,,2013-04-16 10:53:00,
2013-04-16 04:02:00,35.0,35.0,-100.00,WNW,301,5.0,9.0,100,0.01,,,0.01,0.000000,,2013-04-16 11:02:00,
2013-04-16 04:12:00,35.0,35.0,-100.00,WNW,301,5.0,9.0,100,0.01,,,0.01,0.000000,,2013-04-16 11:12:00,
2013-04-16 04:32:00,33.0,33.0,-100.00,NW,317,3.0,9.0,100,0.00,,,0.01,0.000000,,2013-04-16 11:32:00,
2013-04-16 04:42:00,33.0,33.0,-100.00,NW,317,3.0,9.0,100,0.00,,,0.01,0.000000,,2013-04-16 11:42:00,
2013-04-16 04:52:00,33.0,33.0,-100.00,NW,317,3.0,9.0,100,0.00,,,0.01,0.000000,,2013-04-16 11:52:00,
2013-04-16 05:02:00,33.0,33.0,-100.00,NW,317,3.0,9.0,100,0.00,,,0.01,0.000000,,2013-04-16 12:02:00,
2013-04-16 05:12:00,33.0,33.0,-100.00,NW,317,3.0,9.0,100,0.00,,,0.01,0.000000,,2013-04-16 12:12:00,
2013-04-16 05:42:00,32.0,32.0,-100.00,NW,319,4.0,7.0,100,0.00,,,0.01,0.000000,,2013-04-16 12:42:00,
2013-04-16 05:52:00,32.0,32.0,-100.00,NW,319,4.0,7.0,100,0.00,,,0.01,0.000000,,2013-04-16 12:52:00,
2013-04-16 06:02:00,32.0,32.0,-100.00,NW,319,4.0,7.0,100,0.00,,,0.01,0.000000,,2013-04-16 13:02:00,
2013-04-16 06:12:00,32.0,32.0,-100.00,NW,319,4.0,7.0,100,0.00,,,0.01,0.000000,,2013-04-16 13:12:00,
2013-04-16 06:32:00,32.0,32.0,-100.00,NNW,336,5.0,9.0,100,0.00,,,0.01,1.000000,,2013-04-16 13:32:00,
2013-04-16 06:42:00,32.0,32.0,-100.00,NNW,336,5.0,9.0,100,0.00,,,0.01,1.000000,,2013-04-16 13:42:00,
2013-04-16 06:52:00,32.0,32.0,-100.00,NNW,336,5.0,9.0,100,0.00,,,0.01,1.000000,,2013-04-16 13:52:00,
2013-04-16 07:02:00,32.0,32.0,-100.00,NNW,336,5.0,9.0,100,0.00,,,0.01,1.000000,,2013-04-16 14:02:00,
2013-04-16 07:11:00,32.0,32.0,-100.00,NNW,336,5.0,9.0,100,0.00,,,0.01,1.000000,,2013-04-16 14:11:00,
2013-04-16 07:32:00,32.0,32.0,-100.00,NNW,341,4.0,8.0,100,0.00,,,0.01,13.000000,,2013-04-16 14:32:00,
2013-04-16 07:42:00,32.0,32.0,-100.00,NNW,341,4.0,8.0,100,0.00,,,0.01,13.000000,,2013-04-16 14:42:00,
2013-04-16 07:52:00,32.0,32.0,-100.00,NNW,341,4.0,8.0,100,0.00,,,0.01,13.000000,,2013-04-16 14:52:00,
2013-04-16 08:02:00,32.0,32.0,-100.00,NNW,341,4.0,8.0,100,0.00,,,0.01,13.000000,,2013-04-16 15:02:00,
2013-04-16 08:11:00,32.0,32.0,-100.00,NNW,341,4.0,8.0,100,0.00,,,0.01,13.000000,,2013-04-16 15:11:00,
2013-04-16 08:33:00,35.0,35.0,-100.00,NW,311,3.0,6.0,100,0.00,,,0.01,83.000000,,2013-04-16 15:33:00,
2013-04-16 08:43:00,35.0,35.0,-100.00,NW,311,3.0,6.0,100,0.00,,,0.01,83.000000,,2013-04-16 15:43:00,
2013-04-16 08:53:00,35.0,35.0,-100.00,NW,311,3.0,6.0,100,0.00,,,0.01,83.000000,,2013-04-16 15:53:00,
2013-04-16 09:03:00,35.0,35.0,-100.00,NW,311,3.0,6.0,100,0.00,,,0.01,83.000000,,2013-04-16 16:03:00,
2013-04-16 09:12:00,35.0,35.0,-100.00,NW,311,3.0,6.0,100,0.00,,,0.01,83.000000,,2013-04-16 16:12:00,
2013-04-16 09:33:00,38.0,32.0,-100.00,ESE,112,2.0,5.0,79,0.00,,,0.01,175.000000,,2013-04-16 16:33:00,
2013-04-16 09:42:00,38.0,32.0,-100.00,ESE,112,2.0,5.0,79,0.00,,,0.01,175.000000,,2013-04-16 16:42:00,
2013-04-16 09:52:00,38.0,32.0,-100.00,ESE,112,2.0,5.0,79,0.00,,,0.01,175.000000,,2013-04-16 16:52:00,
2013-04-16 10:02:00,38.0,32.0,-100.00,ESE,112,2.0,5.0,79,0.00,,,0.01,175.000000,,2013-04-16 17:02:00,
2013-04-16 10:11:00,38.0,32.0,-100.00,ESE,112,2.0,5.0,79,0.00,,,0.01,175.000000,,2013-04-16 17:11:00,
2013-04-16 10:33:00,40.0,32.0,-100.00,SE,133,2.0,9.0,72,0.00,,,0.01,270.000000,,2013-04-16 17:33:00,
2013-04-16 10:43:00,40.0,32.0,-100.00,SE,133,2.0,9.0,72,0.00,,,0.01,270.000000,,2013-04-16 17:43:00,
2013-04-16 10:53:00,40.0,32.0,-100.00,SE,133,2.0,9.0,72,0.00,,,0.01,270.000000,,2013-04-16 17:53:00,
2013-04-16 11:02:00,40.0,32.0,-100.00,SE,133,2.0,9.0,72,0.00,,,0.01,270.000000,,2013-04-16 18:02:00,
2013-04-16 11:12:00,40.0,32.0,-100.00,SE,133,2.0,9.0,72,0.00,,,0.01,270.000000,,2013-04-16 18:12:00,
2013-04-16 11:32:00,44.0,25.0,-100.00,East,99,5.0,9.0,46,0.00,,,0.01,667.000000,,2013-04-16 18:32:00,
2013-04-16 11:43:00,44.0,25.0,-100.00,East,99,5.0,9.0,46,0.00,,,0.01,667.000000,,2013-04-16 18:43:00,
2013-04-16 11:52:00,44.0,25.0,-100.00,East,99,5.0,9.0,46,0.00,,,0.01,667.000000,,2013-04-16 18:52:00,
2013-04-16 12:02:00,44.0,25.0,-100.00,East,99,5.0,9.0,46,0.00,,,0.01,667.000000,,2013-04-16 19:02:00,
2013-04-16 12:12:00,44.0,25.0,-100.00,East,99,5.0,9.0,46,0.00,,,0.01,667.000000,,2013-04-16 19:12:00,
2013-04-16 12:32:00,42.0,25.0,-100.00,NE,55,4.0,9.0,51,0.00,,,0.01,447.000000,,2013-04-16 19:32:00,
2013-04-16 12:42:00,42.0,25.0,-100.00,NE,55,4.0,9.0,51,0.00,,,0.01,447.000000,,2013-04-16 19:42:00,
2013-04-16 12:52:00,42.0,25.0,-100.00,NE,55,4.0,9.0,51,0.00,,,0.01,447.000000,,2013-04-16 19:52:00,
2013-04-16 13:02:00,42.0,25.0,-100.00,NE,55,4.0,9.0,51,0.00,,,0.01,447.000000,,2013-04-16 20:02:00,
2013-04-16 13:12:00,42.0,25.0,-100.00,NE,55,4.0,9.0,51,0.00,,,0.01,447.000000,,2013-04-16 20:12:00,
2013-04-16 13:32:00,43.0,27.0,-100.00,North,4,3.0,8.0,52,0.00,,,0.01,400.000000,,2013-04-16 20:32:00,
2013-04-16 13:42:00,43.0,27.0,-100.00,North,4,3.0,8.0,52,0.00,,,0.01,400.000000,,2013-04-16 20:42:00,
2013-04-16 13:52:00,43.0,27.0,-100.00,North,4,3.0,8.0,52,0.00,,,0.01,400.000000,,2013-04-16 20:52:00,
2013-04-16 14:02:00,43.0,27.0,-100.00,North,4,3.0,8.0,52,0.00,,,0.01,400.000000,,2013-04-16 21:02:00,
2013-04-16 14:12:00,43.0,27.0,-100.00,North,4,3.0,8.0,52,0.00,,,0.01,400.000000,,2013-04-16 21:12:00,
2013-04-16 14:33:00,45.0,27.0,-100.00,ENE,73,3.0,12.0,50,0.00,,,0.01,418.000000,,2013-04-16 21:33:00,
2013-04-16 14:43:00,45.0,27.0,-100.00,ENE,73,3.0,12.0,50,0.00,,,0.01,418.000000,,2013-04-16 21:43:00,
2013-04-16 14:53:00,45.0,27.0,-100.00,ENE,73,3.0,12.0,50,0.00,,,0.01,418.000000,,2013-04-16 21:53:00,
2013-04-16 15:02:00,45.0,27.0,-100.00,ENE,73,3.0,12.0,50,0.00,,,0.01,418.000000,,2013-04-16 22:02:00,
2013-04-16 15:12:00,45.0,27.0,-100.00,ENE,73,3.0,12.0,50,0.00,,,0.01,418.000000,,2013-04-16 22:12:00,
2013-04-16 15:43:00,47.0,28.0,-100.00,North,351,4.0,9.0,47,0.00,,,0.01,454.000000,,2013-04-16 22:43:00,
2013-04-16 15:52:00,47.0,28.0,-100.00,North,351,4.0,9.0,47,0.00,,,0.01,454.000000,,2013-04-16 22:52:00,
2013-04-16 16:02:00,47.0,28.0,-100.00,North,351,4.0,9.0,47,0.00,,,0.01,454.000000,,2013-04-16 23:02:00,
2013-04-16 16:12:00,47.0,28.0,-100.00,North,351,4.0,9.0,47,0.00,,,0.01,454.000000,,2013-04-16 23:12:00,
2013-04-16 16:32:00,46.0,30.0,-100.00,NW,307,4.0,10.0,54,0.00,,,0.01,297.000000,,2013-04-16 23:32:00,
2013-04-16 16:43:00,46.0,30.0,-100.00,NW,307,4.0,10.0,54,0.00,,,0.01,297.000000,,2013-04-16 23:43:00,
2013-04-16 16:52:00,46.0,30.0,-100.00,NW,307,4.0,10.0,54,0.00,,,0.01,297.000000,,2013-04-16 23:52:00,
2013-04-16 17:02:00,46.0,30.0,-100.00,NW,307,4.0,10.0,54,0.00,,,0.01,297.000000,,2013-04-17 00:02:00,
2013-04-16 17:12:00,46.0,30.0,-100.00,NW,307,4.0,10.0,54,0.00,,,0.01,297.000000,,2013-04-17 00:12:00,
2013-04-16 17:32:00,47.0,30.0,-100.00,NNW,344,5.0,10.0,51,0.00,,,-99.99,395.000000,,2013-04-17 00:32:00,
2013-04-16 17:42:00,47.0,30.0,-100.00,NNW,344,5.0,10.0,51,0.00,,,-99.99,395.000000,,2013-04-17 00:42:00,
2013-04-16 17:52:00,47.0,30.0,-100.00,NNW,344,5.0,10.0,51,0.00,,,-99.99,395.000000,,2013-04-17 00:52:00,
2013-04-16 18:02:00,47.0,30.0,-100.00,NNW,344,5.0,10.0,51,0.00,,,-99.99,395.000000,,2013-04-17 01:02:00,
2013-04-16 18:12:00,47.0,30.0,-100.00,NNW,344,5.0,10.0,51,0.00,,,-99.99,395.000000,,2013-04-17 01:12:00,
2013-04-16 18:32:00,44.0,33.0,-100.00,NNW,345,6.0,11.0,66,0.00,,,0.01,290.000000,,2013-04-17 01:32:00,
2013-04-16 18:42:00,44.0,33.0,-100.00,NNW,345,6.0,11.0,66,0.00,,,0.01,290.000000,,2013-04-17 01:42:00,
2013-04-16 18:52:00,44.0,33.0,-100.00,NNW,345,6.0,11.0,66,0.00,,,0.01,290.000000,,2013-04-17 01:52:00,
2013-04-16 19:02:00,44.0,33.0,-100.00,NNW,345,6.0,11.0,66,0.00,,,0.01,290.000000,,2013-04-17 02:02:00,
2013-04-16 19:11:00,44.0,33.0,-100.00,NNW,345,6.0,11.0,66,0.00,,,0.01,290.000000,,2013-04-17 02:11:00,
2013-04-16 19:42:00,40.0,34.0,-100.00,North,352,4.0,9.0,79,0.00,,,0.01,51.000000,,2013-04-17 02:42:00,
2013-04-16 19:52:00,40.0,34.0,-100.00,North,352,4.0,9.0,79,0.00,,,0.01,51.000000,,2013-04-17 02:52:00,
2013-04-16 20:02:00,40.0,34.0,-100.00,North,352,4.0,9.0,79,0.00,,,0.01,51.000000,,2013-04-17 03:02:00,
2013-04-16 20:12:00,40.0,34.0,-100.00,North,352,4.0,9.0,79,0.00,,,0.01,51.000000,,2013-04-17 03:12:00,
2013-04-16 20:42:00,38.0,33.0,-100.00,NNW,331,4.0,6.0,81,0.00,,,0.01,8.000000,,2013-04-17 03:42:00,
2013-04-16 20:53:00,38.0,33.0,-100.00,NNW,331,4.0,6.0,81,0.00,,,0.01,8.000000,,2013-04-17 03:53:00,
2013-04-16 21:03:00,38.0,33.0,-100.00,NNW,331,4.0,6.0,81,0.00,,,0.01,8.000000,,2013-04-17 04:03:00,
2013-04-16 21:12:00,38.0,33.0,-100.00,NNW,331,4.0,6.0,81,0.00,,,0.01,8.000000,,2013-04-17 04:12:00,
2013-04-16 21:33:00,38.0,27.0,-100.00,NNW,341,4.0,10.0,65,0.00,,,0.01,0.000000,,2013-04-17 04:33:00,
2013-04-16 21:42:00,38.0,27.0,-100.00,NNW,341,4.0,10.0,65,0.00,,,0.01,0.000000,,2013-04-17 04:42:00,
2013-04-16 21:52:00,38.0,27.0,-100.00,NNW,341,4.0,10.0,65,0.00,,,0.01,0.000000,,2013-04-17 04:52:00,
2013-04-16 22:02:00,38.0,27.0,-100.00,NNW,341,4.0,10.0,65,0.00,,,0.01,0.000000,,2013-04-17 05:02:00,
2013-04-16 22:12:00,38.0,27.0,-100.00,NNW,341,4.0,10.0,65,0.00,,,0.01,0.000000,,2013-04-17 05:12:00,
2013-04-16 22:32:00,36.0,30.0,-100.00,NNW,332,5.0,8.0,79,0.00,,,0.01,0.000000,,2013-04-17 05:32:00,
2013-04-16 22:43:00,36.0,30.0,-100.00,NNW,332,5.0,8.0,79,0.00,,,0.01,0.000000,,2013-04-17 05:43:00,
2013-04-16 22:52:00,36.0,30.0,-100.00,NNW,332,5.0,8.0,79,0.00,,,0.01,0.000000,,2013-04-17 05:52:00,
2013-04-16 23:02:00,36.0,30.0,-100.00,NNW,332,5.0,8.0,79,0.00,,,0.01,0.000000,,2013-04-17 06:02:00,
2013-04-16 23:12:00,36.0,30.0,-100.00,NNW,332,5.0,8.0,79,0.00,,,0.01,0.000000,,2013-04-17 06:12:00,
2013-04-16 23:32:00,35.0,33.0,-100.00,NW,312,3.0,9.0,91,0.00,,,0.01,0.000000,,2013-04-17 06:32:00,
2013-04-16 23:42:00,35.0,33.0,-100.00,NW,312,3.0,9.0,91,0.00,,,0.01,0.000000,,2013-04-17 06:42:00,
2013-04-16 23:52:00,35.0,33.0,-100.00,NW,312,3.0,9.0,91,0.00,,,0.01,0.000000,,2013-04-17 06:52:00,